STARLINK-2752, 48692

Orbit data source: Space-Track

STARLINK-2752, 48692 is a payload satellite owned by SpaceX/Seattle (US) in LEO that was launched on Wed, 26 May 2021 UTC via an FALCON 9 launch vehicle from the Air Force Eastern Test Range (AFETR). Payload-class satellites include a variety of spacecraft equipped with specific instruments for various scientific and technological missions. These include communications satellites like Starlink; space stations such as the ISS; scientific satellites like the Hubble; Earth observation satellites from companies like Planet Labs, Umbra, and HawkEye 360; GPS; miniature CubeSats for education and research; and military/defense satellites.

Loading next visibility...
Identifier
48692, 2021-044BG
Orbit
LEO
Country
Flag of USUS
Related business
Manufacturer
SpaceX/Seattle
Mission
Operational Commercial Communications
Bus & Motor
STARLINK, Unknown motor
Mass
260 kg wet, ~248 kg dry
Launch date (UTC)
2021-05-26 (5 years ago)
Launch vehicle
FALCON 9
Launch site
Air Force Eastern Test Range (AFETR)
Object type
Payload
Rocket body
Debris
Shape & HBR
Box + 1 Pan, 10.1 m
Radar Cross Section
13.562 m², Large (>1 m²)

Expand to show TLE details & history
Last TLE update: 2 days ago

TLE from 2 days ago
0 STARLINK-2752
1 48692U 21044BG  26171.42525773  .00001308  00000-0  53879-4 0  9990
2 48692  53.1608 317.1526 0000983  88.8170 271.2944 15.31710456280104
Epoch: 2026-06-20T10:12Z
TLE epoch observation values (Epoch: 2026-06-20T10:12:22.267Z)
Latitude
-0.00004°
Longitude
-104.58028°
Altitude
471.594 km
Speed
7.631 km/s
True Right ascension
21h 08m 36s
True Declination
0° 00' 00"
Sunlit
Object was in full shadow at epoch
Visualization orbit readout
Latitude
Unknown
Longitude
Unknown
Altitude
Unknown
Speed
Unknown
Apparent Right ascension
Unknown
Apparent Declination
Unknown
Sunlit
N/A
Visualization observer readout
Local Sidereal Time
21:36:01
Azimuth
Unknown
Elevation
Unknown
Doppler factor
Unknown
Orbital elements
Apogee altitude
471.639 km
Perigee altitude
470.292 km
Semi-major axis
6,849.102 km
Eccentricity
0.0001
Inclination
53.1608°
RAAN
317.1526°
Arg. of periapsis
88.817°
True anomaly
271.28314°
Mean anomaly
271.2944°
Eccentric anomaly
271.28877°
Mean motion
3.82906 °/min
Orbital period
94.02 mins
BSTAR
0.000053879
Loading maneuver chart data...
Computing Atmospheric mass density...

Documentation

Showing up to 5 results
|